Flag for Netherlands Weather past 2 weeks in 's-Hertogenbosch, Netherlands

Now
30 °F

Chilly.


Feels Like: 30 °F
Forecast: 38 / 57 °F
Wind: 1 mph from West

Location: Volkel

Current Time: Apr 28, 2015 at 6:03:03 AM

Latest Report: Apr 28, 2015 at 5:25 AM


Visibility: N/A

Pressure: 29.89 "Hg

Humidity: 93%

Dew point: 28 °F

Location of 's-HertogenboschLocation

Historic Weather in 's-Hertogenbosch — Graph

°F

's-Hertogenbosch temperature yesterday

Maximum temperature yesterday: 55 °F (at 1:55 PM)
Minimum temperature yesterday: 41 °F (at 11:25 PM)
Average temperature yesterday: 49 °F

Past Weeks' High & Low Weather Summary

 TemperatureHumidityPressure
High75 °F (Apr 15, 3:55 PM)100% (Apr 16, 2:25 AM)30.48 "Hg (Apr 16, 2:25 AM)
Low30 °F (Apr 19, 6:25 AM)28% (Apr 20, 3:25 PM)29.68 "Hg (Apr 26, 3:25 PM)
Average51 °F71%30.10 "Hg
* Reported Apr 13 4:25 AM — Apr 28 4:55 AM, 's-Hertogenbosch, Weather by CustomWeather, © 2015

Note: Actual official high and low records may vary slightly from our data, if they occured in-between our weather recording intervals... More about our weather records

Advertising

's-Hertogenbosch weather history for previous 24 hours

 ConditionsComfort  
Time TempWeatherWind HumidityBarometerVisibility
4:55 AM
Tue, Apr 28
30 °FChilly.2 mph93%29.89 "HgN/A
4:25 AM30 °FChilly.2 mph100%29.89 "HgN/A
3:55 AM32 °FChilly.No wind93%29.89 "HgN/A
3:25 AM32 °FChilly.1 mph93%29.89 "HgN/A
2:55 AM32 °FChilly.No wind93%29.89 "HgN/A
2:25 AM32 °FChilly.2 mph93%29.89 "HgN/A
1:55 AM36 °FChilly.3 mph81%29.89 "HgN/A
1:25 AM36 °FClear.3 mph87%29.89 "HgN/A
12:55 AM37 °FChilly.3 mph81%29.86 "HgN/A
12:25 AM41 °FQuite cool.3 mph70%29.86 "HgN/A
11:55 PM
Mon, Apr 27
41 °FQuite cool.5 mph70%29.86 "HgN/A
11:25 PM41 °FQuite cool.5 mph70%29.86 "HgN/A
10:55 PM43 °FQuite cool.6 mph66%29.86 "HgN/A
10:25 PM45 °FClear.5 mph66%29.86 "HgN/A
9:55 PM45 °FQuite cool.5 mph61%29.83 "HgN/A
9:25 PM46 °FCool.6 mph53%29.83 "HgN/A
8:55 PM48 °FCool.8 mph50%29.83 "HgN/A
8:25 PM50 °FHigh level clouds.8 mph47%29.80 "HgN/A
7:55 PM52 °FPartly sunny.10 mph47%29.80 "HgN/A
7:25 PM52 °FPartly sunny.10 mph50%29.80 "HgN/A
6:55 PM52 °FMostly cloudy.10 mph54%29.80 "HgN/A
6:25 PM54 °FPartly sunny.10 mph54%29.77 "HgN/A
5:55 PM54 °FMostly cloudy.13 mph54%29.77 "HgN/A
5:25 PM54 °FPartly sunny.10 mph47%29.77 "HgN/A
4:55 PM55 °FScattered clouds.9 mph51%29.77 "HgN/A
4:25 PM55 °FScattered clouds.9 mph44%29.77 "HgN/A
3:55 PM55 °FBroken clouds.10 mph47%29.77 "HgN/A
3:25 PM55 °FPassing clouds.10 mph44%29.77 "HgN/A
2:55 PM55 °FPartly sunny.13 mph41%29.77 "HgN/A
2:25 PM55 °FScattered clouds.12 mph41%29.77 "HgN/A
1:55 PM55 °FPassing clouds.9 mph44%29.77 "HgN/A
1:25 PM54 °FPartly sunny.9 mph47%29.77 "HgN/A
12:55 PM54 °FPassing clouds.10 mph44%29.77 "HgN/A
12:25 PM52 °FPartly sunny.13 mph47%29.77 "HgN/A
11:55 AM50 °FPartly sunny.14 mph47%29.77 "HgN/A
11:25 AM52 °FPartly sunny.12 mph50%29.77 "HgN/A
10:55 AM50 °FScattered clouds.13 mph54%29.77 "HgN/A
10:25 AM48 °FScattered clouds.12 mph71%29.77 "HgN/A
10:00 AM50 °FPartly sunny.12 mph67%29.74 "HgN/A
9:25 AM48 °FPartly sunny.9 mph76%29.74 "HgN/A
8:59 AM48 °FPartly sunny.12 mph76%29.74 "HgN/A
8:25 AM46 °FScattered clouds.9 mph82%29.74 "HgN/A
7:55 AM45 °FOvercast.8 mph87%29.71 "HgN/A
7:25 AM45 °FOvercast.7 mph87%29.71 "HgN/A
6:55 AM45 °FOvercast.8 mph87%29.71 "HgN/A
6:25 AM45 °FPassing clouds.10 mph87%29.68 "HgN/A
Weather by CustomWeather, © 2015

See weather overviewHow to use our weather pages